SCP
0 -0 -0 -0 -0 -0 0 -0 -0 -0 0 0 0 0 0 0 0 0 0 0 0 0 0 0 0 0 0 0 0 0 0 0 0 0 0 0 0 0 0 0 0 0 0 0 0 0 0 0 0 0 0 0 0 0
0 0 -0 -0 -0 -0 -0 0 0 0 0 0 0 -0 -0 0 0 0 0 0 0 0 0 0 0 0 0 0 0 0 0 0 0 0 0 0 0 0 0 0 0 0 0 0 0 0 0 0 0 0 0 0 0 0
0 0 0 -0 -0 -0 0 0 0 0 0 0 0 -0 -0 -0 0 0 0 0 0 0 0 0 0 0 0 0 0 0 0 0 0 0 0 0 0 0 0 0 0 0 0 0 0 0 0 0 0 0 0 0 0 0
-0 0 0 0 -0 0 0 0 0 0 0 0 -0 -0 -0 0 0 0 0 0 0 0 0 0 0 0 0 0 0 0 0 0 0 0 0 0 0 0 0 0 0 0 0 0 0 0 0 0 0 0 0 0 0 0
-0 -0 -0 -0 0 0 0 0 0 0 0 0 -0 -0 0 0 0 0 0 0 0 0 0 0 0 0 0 0 0 0 0 0 0 0 0 0 0 0 0 0 0 0 0 0 0 0 0 0 0 0 0 0 0 0
-0 -0 -0 -0 -0 -0 -0 0 -0 -0 0 0 0 0 0 0 0 0 0 0 0 0 0 0 0 0 0 0 0 0 0 0 0 0 0 0 0 0 0 0 0 0 0 0 0 0 0 0 0 0 0 0 0 0
-0 -0 -0 -0 -0 -0 -0 -0 -0 0 0 -0 -0 -0 -0 0 0 0 0 0 0 0 0 0 0 0 0 0 0 0 0 0 0 0 0 0 0 0 0 0 0 0 0 0 0 0 0 0 0 0 0 0 -0 -0
-0 -0 -0 -0 -0 -0 -0 -0 -0 -0 0 -0 -0 -0 -0 -0 0 0 0 0 -0 0 0 0 0 0 0 0 0 0 0 0 0 0 0 0 0 0 0 0 0 0 0 0 0 0 0 0 0 0 0 0 0 0
-0 -0 -0 -0 -0 -0 -0 -0 -0 -0 0 0 -0 0 -0 -0 0 0 0 0 0 0 0 0 0 0 0 0 0 0 0 0 0 0 0 0 0 0 0 0 0 0 0 0 0 0 0 0 0 0 0 0 0 0
-0 -0 -0 -0 -0 -0 -0 -0 -0 -0 0 -0 0 0 0 0 0 0 0 0 0 0 0 0 0 0 0 0 0 0 0 0 0 0 0 0 0 0 0 0 0 0 0 0 0 0 0 0 0 0 0 0 0 0
-0 -0 -0 -0 -0 -0 -0 -0 -0 0 0 0 0 0 0 0 0 0 0 0 0 0 0 0 0 0 0 0 0 0 0 0 0 0 0 0 0 0 0 0 0 0 0 0 0 0 0 0 0 0 0 0 0 0
0 -0 -0 -0 -0 0 -0 -0 -0 0 0 0 0 0 0 0 0 0 0 0 0 0 0 0 0 0 0 0 0 0 0 0 0 0 0 0 0 0 0 0 0 0 0 0 0 0 0 0 0 0 0 0 0 0
0 0 0 0 -0 -0 0 0 -0 0 0 0 0 0 0 0 0 0 0 0 0 0 0 0 0 0 0 0 0 0 0 0 0 0 0 0 0 0 0 0 0 0 0 0 0 0 0 0 0 0 0 0 0 0
0 0 0 0 0 0 0 -0 -0 -0 -0 0 0 0 0 0 0 0 0 0 0 0 0 0 0 0 0 0 0 0 0 0 0 0 0 0 0 0 0 0 0 0 0 0 0 0 0 0 0 0 0 0 0 0
0 0 0 0 -0 0 0 0 -0 -0 0 0 0 0 0 0 0 0 0 0 0 0 0 0 0 0 0 0 0 0 0 0 0 0 0 0 0 0 0 0 0 0 0 0 0 0 0 0 0 0 0 0 0 0
0 0 0 -0 -0 0 0 0 0 0 0 0 0 0 0 0 0 0 0 0 0 0 0 0 0 0 0 0 0 0 0 0 0 0 0 0 0 0 0 0 0 0 0 0 0 0 0 0 0 0 0 0 0 0
0 0 -0 -0 -0 0 0 0 0 0 0 0 0 0 0 0 0 0 0 0 0 0 0 0 0 0 0 0 0 0 0 0 0 0 0 0 0 0 0 0 0 0 0 0 0 0 0 0 0 0 0 0 0 0
0 0 -0 -0 0 0 0 0 0 0 0 0 0 0 0 0 0 0 0 0 0 0 0 0 0 0 0 0 0 0 0 0 0 0 0 0 0 0 0 0 0 0 0 0 0 0 0 0 0 0 0 0 0 0
0 0 -0 0 0 0 0 0 0 0 0 0 0 0 0 0 0 0 0 0 0 0 0 0 0 0 0 0 0 0 0 0 0 0 0 0 0 0 0 0 0 0 0 0 0 0 0 0 0 0 0 0 0 0
0 0 0 0 0 0 0 0 0 0 0 0 0 0 0 0 0 0 0 0 0 0 0 0 0 0 0 0 0 0 0 0 0 0 0 0 0 0 0 0 0 0 0 0 0 0 0 0 0 0 0 0 0 0
0 0 0 0 0 0 0 0 0 0 0 0 0 0 0 0 0 0 0 0 0 0 0 0 0 0 0 0 0 0 0 0 0 0 0 0 0 0 0 0 0 0 0 0 0 0 0 0 0 0 0 0 0 0
0 0 0 0 0 0 0 0 0 0 0 0 0 0 0 0 0 0 0 0 0 0 0 0 0 0 0 0 0 0 0 0 0 0 0 0 0 0 0 0 0 0 0 0 0 0 0 0 0 0 0 0 0 0
0 0 0 0 0 0 0 0 0 0 0 0 0 0 0 0 0 0 0 0 0 0 0 0 0 0 0 0 0 0 0 0 0 0 0 0 0 0 0 0 0 0 0 0 0 0 0 0 0 0 0 0 0 0
0 0 0 0 0 0 0 0 0 0 0 0 0 0 0 0 0 0 0 0 0 0 0 0 0 0 0 0 0 0 0 0 0 0 0 0 0 0 0 0 0 0 0 0 0 0 0 0 0 0 0 0 0 0
0 0 0 0 0 0 0 0 0 0 0 0 0 0 0 0 0 0 0 0 0 0 0 0 0 0 0 0 0 0 0 0 0 0 0 0 0 0 0 0 0 0 0 0 0 0 0 0 0 0 0 0 0 0
0 0 0 0 0 0 0 0 0 0 0 0 0 0 0 0 0 0 0 0 0 0 0 0 0 0 0 0 0 0 0 0 0 0 0 0 0 0 0 0 0 0 0 0 0 0 0 0 0 0 0 0 0 0
0 0 0 0 0 0 0 0 0 0 0 0 0 0 0 0 0 0 0 0 0 0 0 0 0 0 0 0 0 0 0 0 0 0 0 0 0 0 0 0 0 0 0 0 0 0 0 0 0 0 0 0 0 0
0 0 0 0 0 0 0 0 0 0 0 0 0 0 0 0 0 0 0 0 0 0 0 0 0 0 0 0 0 0 0 0 0 0 0 0 0 0 0 0 0 0 0 0 0 0 0 0 0 0 0 0 0 0
0 0 0 0 0 0 0 0 0 0 0 0 0 0 0 0 0 0 0 0 0 0 0 0 0 0 0 0 0 0 0 0 0 0 0 0 0 0 0 0 0 0 0 0 0 0 0 0 0 0 0 0 0 0
0 0 0 0 0 0 0 0 0 0 0 0 0 0 0 0 0 0 0 0 0 0 0 0 0 0 0 0 0 0 0 0 0 0 0 0 0 0 0 0 0 0 0 0 0 0 0 0 0 0 0 0 0 0
0 0 0 0 0 0 0 0 0 0 0 0 0 0 0 0 0 0 0 0 0 0 0 0 0 0 0 0 0 0 0 0 0 0 0 0 0 0 0 0 0 0 0 0 0 0 0 0 0 0 0 0 0 0
0 0 0 0 0 0 0 0 0 0 0 0 0 0 0 0 0 0 0 0 0 0 0 0 0 0 0 0 0 0 0 0 0 0 0 0 0 0 0 0 0 0 0 0 0 0 0 0 0 0 0 0 0 0
0 0 0 0 0 0 0 0 0 0 0 0 0 0 0 0 0 0 0 0 0 0 0 0 0 0 0 0 -0 -0 -0 0 0 0 0 0 0 0 0 0 0 0 0 0 0 0 0 0 0 0 0 0 0 0
Wind_Speed_500mb
99 105 99 90 69 63 65 66 73 80 83 75 67 53 45 22 19 14 19 33 22 23 40 20 17 17 28 20 22 28 13 5 6 8 7 6 7 10 8 8 14 13 12 7 6 4 13 26 7 6 5 20 17 18
92 94 102 93 67 63 49 50 49 53 60 60 54 43 28 23 24 20 32 31 61 39 34 49 40 30 26 25 38 21 4 11 14 9 4 7 6 4 11 7 6 4 11 11 10 7 14 41 43 25 21 17 16 21
86 89 92 92 95 81 51 41 34 32 34 36 36 33 33 40 13 13 34 50 61 51 43 26 28 31 22 33 33 11 6 12 11 12 9 6 9 6 7 8 6 1 3 7 11 8 19 25 28 23 19 16 16 24
79 79 83 88 85 75 74 50 37 24 25 21 21 21 27 21 17 12 26 30 42 25 11 18 26 33 24 28 17 11 21 24 32 21 10 6 7 6 5 6 7 1 5 9 11 15 20 16 22 16 16 20 27 33
75 74 73 74 77 76 68 59 58 24 13 10 16 19 20 20 23 35 38 33 16 9 12 12 30 38 35 27 19 23 36 43 14 9 8 3 7 8 3 6 3 5 6 7 6 22 7 13 9 12 21 29 33 40
69 69 69 68 67 67 64 56 51 44 39 27 34 29 47 46 44 36 11 24 32 47 16 6 10 34 39 40 35 28 26 22 17 13 7 7 6 5 6 5 5 12 14 13 15 16 4 6 1 12 26 30 36 38
62 63 63 63 61 59 55 50 43 43 39 29 27 25 21 16 7 11 15 28 32 22 15 7 4 14 25 28 25 28 24 20 16 10 8 5 7 7 6 5 23 22 15 15 15 16 13 6 6 18 23 25 29 31
56 57 57 57 56 53 49 43 36 31 32 35 36 38 37 39 46 48 40 27 17 16 14 7 2 6 18 12 8 13 10 11 20 8 6 7 6 8 4 8 27 23 15 17 15 6 7 2 6 13 19 24 26 30
50 50 51 52 51 50 48 41 31 23 21 17 19 21 21 21 19 22 33 33 28 15 12 9 5 4 11 10 9 8 10 7 7 5 4 5 5 6 10 37 38 31 24 27 11 7 9 7 9 14 19 21 23 28
52 49 47 46 47 46 45 44 39 23 13 12 11 8 11 14 12 9 7 7 15 22 19 5 11 4 15 10 8 6 9 3 3 4 6 5 6 6 20 34 28 25 19 17 19 16 12 13 13 13 14 17 21 24
51 49 50 50 46 42 40 40 42 27 13 14 14 12 13 16 10 11 12 17 18 10 18 12 21 5 15 6 1 9 3 4 5 6 6 5 6 9 35 28 23 19 17 16 16 15 12 12 10 9 9 11 15 22
48 47 48 50 49 45 38 33 32 35 35 19 10 10 10 14 13 15 4 8 12 2 14 7 12 9 7 7 6 6 5 6 3 1 7 7 5 20 42 28 22 19 17 16 14 11 10 7 8 9 10 12 18 23
45 45 45 46 46 46 43 32 23 25 22 16 10 9 19 19 22 11 7 8 7 17 17 18 4 9 5 7 10 7 10 3 2 6 7 7 9 37 30 25 22 20 16 13 13 12 11 8 6 4 6 9 12 15
40 42 42 41 42 43 42 36 20 12 11 12 17 16 9 10 4 6 6 6 2 7 11 12 6 10 9 10 1 10 5 6 7 3 10 5 35 39 29 25 23 21 20 18 16 14 11 9 5 5 7 9 12 14
31 32 42 43 42 41 36 34 24 12 12 13 13 7 6 5 2 3 2 0 0 4 7 2 5 6 6 8 5 6 7 4 10 9 6 10 41 36 31 28 25 25 24 22 20 16 12 8 4 1 5 10 13 17
29 29 38 39 42 40 32 23 19 19 13 12 14 11 9 3 1 5 5 3 4 3 4 5 4 8 5 6 7 9 10 11 7 5 5 25 37 30 29 28 26 25 23 20 18 15 11 9 8 6 5 9 15 20
27 26 34 37 37 30 33 14 15 16 12 10 10 18 10 8 5 2 1 2 4 4 2 5 8 8 1 6 6 8 9 6 9 8 9 21 23 28 30 29 27 25 23 21 17 14 13 11 9 8 8 12 18 22
24 26 30 33 36 23 26 18 12 11 13 10 6 11 6 10 11 7 5 4 2 4 3 4 7 5 8 8 8 7 17 14 13 9 15 24 27 27 26 26 26 24 21 18 17 16 15 14 11 11 11 14 18 21
24 24 26 30 30 16 8 11 10 10 7 9 17 17 8 6 7 8 7 6 6 5 7 7 7 6 7 17 16 15 19 21 19 21 24 27 28 27 27 27 25 21 20 20 19 19 18 16 15 14 15 18 20 22
21 20 20 23 22 7 5 7 7 9 9 13 15 15 7 6 10 12 12 11 12 6 4 5 10 14 18 18 18 24 26 23 26 25 29 32 31 29 29 26 23 24 25 23 23 23 21 19 17 17 19 21 22 22
21 13 16 17 7 1 6 7 7 8 15 7 13 11 5 7 7 9 11 18 15 12 10 32 37 27 27 24 23 18 15 15 20 21 19 32 32 31 31 31 31 30 28 27 25 23 23 19 19 21 22 24 24 23
15 15 12 9 4 4 6 6 11 15 8 12 14 7 4 4 6 6 8 16 16 19 22 21 29 28 31 32 27 21 18 19 22 24 25 25 27 36 39 36 34 31 30 27 26 23 21 21 23 23 24 25 24 22
13 8 6 7 6 3 4 15 4 8 5 12 11 2 4 4 5 5 9 15 18 22 30 35 33 29 24 25 29 30 29 28 29 29 30 30 30 29 31 34 33 32 32 28 25 24 23 25 25 25 24 24 22 21
10 7 6 5 6 7 13 5 6 7 8 4 5 3 4 7 4 3 7 12 20 18 17 19 26 32 31 32 35 34 32 31 31 33 35 36 35 32 30 29 32 31 29 30 29 27 27 25 26 25 25 24 22 21
5 7 6 3 7 8 6 3 4 4 5 4 3 4 3 6 1 3 7 12 19 15 16 21 26 28 33 30 27 26 34 37 37 37 34 35 32 34 37 36 35 32 35 33 29 27 26 27 25 25 25 23 22 22
6 8 6 10 4 9 10 9 10 12 6 6 9 2 4 4 1 11 7 10 15 10 12 12 17 25 32 31 32 28 28 30 34 41 37 41 40 39 34 34 33 31 33 28 27 27 26 25 24 25 24 24 23 22
8 11 10 11 11 12 7 6 8 4 9 12 7 8 4 5 10 10 11 16 16 12 12 12 14 18 21 26 30 30 32 35 35 36 33 36 37 36 35 36 33 25 28 24 23 22 23 23 24 24 23 23 23 24
11 18 9 20 12 12 8 5 10 13 8 13 20 9 12 14 9 6 11 11 11 12 11 13 23 33 36 35 35 36 39 38 37 40 37 37 37 37 36 33 31 30 28 25 23 23 23 23 23 22 20 20 23 24
7 12 19 7 8 9 16 12 9 13 14 23 8 7 8 13 11 9 14 21 29 41 51 53 55 54 51 50 51 48 42 43 43 44 47 45 38 35 32 31 30 29 29 29 28 27 26 25 24 22 21 21 21 22
9 23 7 8 9 10 11 16 9 13 18 22 14 15 22 37 44 45 56 59 55 43 26 14 21 25 29 31 30 38 46 43 43 45 43 42 31 24 24 24 25 27 29 32 33 32 31 28 25 21 21 21 21 21
12 19 6 9 6 6 7 12 15 16 16 17 29 33 36 33 40 31 15 6 10 5 11 20 26 30 35 37 40 40 37 37 39 39 40 38 30 21 18 19 21 24 26 28 31 31 29 27 24 22 21 20 21 21
14 12 7 6 4 5 6 5 4 6 7 7 8 10 11 11 12 6 6 10 5 9 18 22 23 24 27 28 27 27 26 26 23 24 31 32 28 26 25 26 31 33 31 29 27 26 25 24 23 23 23 22 22 22
5 7 5 3 2 3 5 1 3 5 7 6 6 6 7 9 14 8 8 10 4 9 9 11 15 20 26 29 25 13 10 15 16 15 17 19 18 20 24 29 29 26 23 23 23 22 22 22 22 23 22 22 22 23
Wind_Direction_500mb
37 39 46 55 74 75 89 107 117 123 132 136 145 146 153 130 90 115 113 153 147 93 55 93 118 82 122 127 150 162 106 350 47 71 109 179 118 204 105 169 171 160 151 182 129 141 255 5 332 171 81 69 54 31
45 43 40 52 73 79 89 98 119 135 145 149 159 170 162 132 60 53 98 118 123 109 104 89 90 99 108 119 135 151 129 144 152 103 99 102 92 123 154 197 189 170 178 172 165 179 78 56 87 75 81 81 29 360
48 51 48 44 46 54 79 95 114 123 143 162 164 175 211 195 15 51 119 120 112 97 70 81 66 86 116 143 141 106 174 145 146 120 143 147 121 129 145 231 109 143 130 112 130 84 118 92 70 70 50 45 4 349
45 48 49 50 49 50 48 71 94 118 126 143 171 176 201 225 219 196 135 121 126 105 92 50 84 68 103 142 152 163 154 141 127 118 86 106 121 175 191 158 123 209 345 129 87 119 122 88 46 31 17 3 350 343
40 44 47 48 50 50 54 57 53 99 135 131 141 152 165 150 158 150 135 103 108 120 132 129 75 77 90 127 130 122 142 136 95 67 59 98 123 105 0 68 96 6 146 167 174 144 130 119 8 1 0 351 343 340
37 39 41 44 47 48 52 58 66 64 65 85 100 121 142 132 125 141 87 69 90 113 99 75 65 44 95 98 112 117 110 83 79 75 85 95 84 100 102 174 158 138 120 112 144 155 210 241 219 317 337 341 341 342
33 34 37 39 41 43 47 52 59 72 88 111 122 120 114 103 147 191 132 133 127 87 94 102 38 25 60 84 84 74 65 61 68 88 48 61 52 45 90 179 151 160 147 135 133 129 126 179 276 326 341 349 357 356
28 29 30 31 35 38 41 43 47 55 70 83 96 105 105 96 93 93 109 126 123 97 89 97 17 38 26 38 69 41 64 55 42 86 62 42 33 34 123 167 152 160 159 165 151 127 160 212 350 4 3 3 9 8
19 21 22 26 27 30 32 35 38 42 38 61 92 84 75 60 51 64 84 80 71 85 102 69 103 188 12 59 52 54 46 64 36 77 32 38 324 218 180 168 176 174 174 168 177 163 137 104 58 33 22 19 19 16
17 17 16 15 15 20 26 29 29 30 41 35 33 47 54 13 44 54 47 47 39 37 47 70 345 4 13 26 34 36 33 123 60 293 350 71 258 164 159 172 174 175 173 168 156 147 124 100 79 64 41 26 18 13
17 17 17 14 11 9 9 19 30 42 65 46 37 45 24 28 32 43 54 44 358 37 24 36 31 11 30 64 156 34 89 36 75 272 120 322 286 201 175 168 170 173 168 160 147 136 119 101 93 82 65 37 27 24
15 16 16 15 13 10 8 7 16 33 45 56 83 66 37 27 43 69 4 2 41 82 359 16 352 18 32 37 90 6 110 35 198 316 68 288 248 157 171 171 168 168 167 153 138 129 116 108 78 53 36 35 26 25
11 11 10 10 10 13 13 12 13 16 18 29 33 50 11 355 42 57 354 342 32 351 1 358 357 5 15 39 64 67 71 204 309 46 231 230 155 162 170 172 169 167 158 148 141 138 137 127 108 78 38 25 20 19
6 11 10 6 8 7 9 12 16 33 33 39 29 26 58 354 38 182 188 202 328 313 340 358 335 24 9 35 92 81 252 71 43 5 240 246 186 171 174 175 173 164 161 159 159 159 160 155 129 54 17 1 352 356
3 6 10 12 12 13 10 14 23 46 57 62 42 57 60 150 157 157 157 230 150 360 11 52 30 2 353 68 28 95 41 256 204 232 234 208 178 182 181 177 172 173 171 168 165 164 165 157 152 293 321 332 335 336
4 9 7 4 6 10 13 22 47 56 60 57 62 87 123 132 272 187 175 142 114 110 67 62 98 54 358 121 58 217 126 221 252 230 228 172 178 181 180 177 176 177 175 173 172 173 182 199 209 222 273 306 317 319
6 10 6 6 3 4 11 47 42 54 61 61 68 93 109 79 96 172 130 41 93 26 103 93 62 209 6 36 309 196 205 229 292 287 192 184 190 183 179 181 182 183 182 183 190 203 209 219 231 251 284 314 315 314
353 355 1 4 4 8 26 42 70 72 73 99 129 145 146 134 142 156 163 147 67 74 97 178 126 88 178 181 265 239 229 248 261 240 204 192 187 188 188 187 186 187 195 207 216 221 226 234 243 258 284 298 303 307
336 342 351 358 3 9 32 45 55 97 103 128 142 148 150 165 187 179 176 182 171 140 141 138 88 197 227 214 227 248 255 254 249 235 212 199 196 197 195 194 198 204 216 222 228 229 233 242 246 263 286 296 302 303
321 324 337 351 356 18 75 62 73 96 141 160 167 174 177 192 188 203 204 199 185 204 172 194 215 213 211 238 256 275 283 267 235 214 209 203 200 203 205 210 212 220 224 229 234 235 240 247 256 272 288 296 300 299
314 311 321 335 329 53 102 121 84 94 130 138 161 168 185 192 212 206 208 201 204 223 236 227 229 237 239 250 268 266 257 242 227 224 229 208 209 213 215 219 224 228 229 232 236 240 248 259 261 271 283 290 296 296
294 299 304 303 232 135 96 93 116 130 136 136 155 193 233 223 209 206 211 204 235 233 217 233 244 247 247 251 254 244 237 230 224 224 226 226 221 223 224 227 230 234 235 236 241 248 255 256 260 267 277 285 289 290
278 280 254 230 184 158 139 155 144 138 115 175 156 126 248 207 202 220 253 236 256 255 243 248 251 247 246 245 237 236 237 237 238 239 240 243 240 233 225 229 233 237 237 238 247 254 257 257 257 264 274 279 280 282
251 241 234 223 190 147 145 124 129 126 133 106 120 231 242 178 204 232 255 256 243 246 251 259 253 251 248 244 243 244 244 246 245 240 236 236 238 239 240 239 238 239 239 240 248 252 255 257 257 265 271 273 272 275
242 240 204 241 155 117 88 62 5 72 184 188 123 273 224 170 99 244 234 266 251 256 254 252 250 249 249 254 254 245 237 242 245 249 245 244 243 237 240 240 242 242 241 246 248 253 253 252 260 267 271 271 273 281
227 208 161 196 173 174 182 148 194 195 154 165 219 145 152 106 105 243 231 239 243 248 244 258 258 257 257 256 260 259 258 254 248 247 242 243 244 246 247 246 246 244 246 245 244 252 254 256 264 269 271 271 274 284
237 216 185 173 160 150 97 104 134 129 172 193 177 153 157 201 239 247 237 235 244 260 263 270 279 282 285 273 265 260 257 249 248 253 252 247 246 243 241 243 245 243 239 242 247 256 255 261 268 269 265 269 279 289
223 180 188 175 174 178 146 165 173 198 201 172 142 180 192 205 235 217 222 224 241 261 269 283 296 295 291 284 277 266 253 250 251 245 242 241 237 237 238 239 235 231 234 241 248 255 257 263 271 270 263 265 275 288
188 174 155 137 160 199 217 195 207 198 185 177 181 216 235 226 232 232 263 274 273 279 285 288 288 286 283 276 268 265 265 252 243 243 244 244 242 243 243 238 230 228 236 244 250 254 257 262 269 265 259 265 274 285
188 174 167 176 183 216 200 200 203 198 203 213 243 269 270 271 282 287 289 287 286 284 278 282 304 310 304 295 287 270 258 255 248 243 246 249 259 255 242 232 231 240 248 252 253 252 255 260 264 257 257 266 275 282
166 184 199 203 240 217 214 215 232 245 247 250 251 260 270 292 298 296 283 257 170 215 302 314 316 312 307 301 290 279 261 253 246 239 237 240 240 239 233 237 245 252 257 255 250 247 250 259 259 257 263 271 278 285
174 190 199 209 224 205 204 212 247 252 253 247 257 259 288 279 273 262 223 199 248 314 329 333 336 338 337 331 315 285 258 235 224 225 221 221 223 232 245 253 256 255 255 249 244 245 249 252 252 257 264 271 278 287
168 184 208 241 213 208 188 199 283 298 262 266 264 267 248 258 257 248 228 222 277 332 349 11 19 23 23 25 30 46 122 168 174 179 190 196 212 238 254 262 261 254 245 241 242 244 247 246 251 258 265 272 279 286
Wind_Speed_850mb
99 105 99 90 69 63 65 66 73 80 83 75 67 53 45 22 19 14 19 33 22 23 40 20 17 17 28 20 22 28 13 5 6 8 7 6 7 10 8 8 14 13 12 7 6 4 13 26 7 6 5 20 17 18
92 94 102 93 67 63 49 50 49 53 60 60 54 43 28 23 24 20 32 31 61 39 34 49 40 30 26 25 38 21 4 11 14 9 4 7 6 4 11 7 6 4 11 11 10 7 14 41 43 25 21 17 16 21
86 89 92 92 95 81 51 41 34 32 34 36 36 33 33 40 13 13 34 50 61 51 43 26 28 31 22 33 33 11 6 12 11 12 9 6 9 6 7 8 6 1 3 7 11 8 19 25 28 23 19 16 16 24
79 79 83 88 85 75 74 50 37 24 25 21 21 21 27 21 17 12 26 30 42 25 11 18 26 33 24 28 17 11 21 24 32 21 10 6 7 6 5 6 7 1 5 9 11 15 20 16 22 16 16 20 27 33
75 74 73 74 77 76 68 59 58 24 13 10 16 19 20 20 23 35 38 33 16 9 12 12 30 38 35 27 19 23 36 43 14 9 8 3 7 8 3 6 3 5 6 7 6 22 7 13 9 12 21 29 33 40
69 69 69 68 67 67 64 56 51 44 39 27 34 29 47 46 44 36 11 24 32 47 16 6 10 34 39 40 35 28 26 22 17 13 7 7 6 5 6 5 5 12 14 13 15 16 4 6 1 12 26 30 36 38
62 63 63 63 61 59 55 50 43 43 39 29 27 25 21 16 7 11 15 28 32 22 15 7 4 14 25 28 25 28 24 20 16 10 8 5 7 7 6 5 23 22 15 15 15 16 13 6 6 18 23 25 29 31
56 57 57 57 56 53 49 43 36 31 32 35 36 38 37 39 46 48 40 27 17 16 14 7 2 6 18 12 8 13 10 11 20 8 6 7 6 8 4 8 27 23 15 17 15 6 7 2 6 13 19 24 26 30
50 50 51 52 51 50 48 41 31 23 21 17 19 21 21 21 19 22 33 33 28 15 12 9 5 4 11 10 9 8 10 7 7 5 4 5 5 6 10 37 38 31 24 27 11 7 9 7 9 14 19 21 23 28
52 49 47 46 47 46 45 44 39 23 13 12 11 8 11 14 12 9 7 7 15 22 19 5 11 4 15 10 8 6 9 3 3 4 6 5 6 6 20 34 28 25 19 17 19 16 12 13 13 13 14 17 21 24
51 49 50 50 46 42 40 40 42 27 13 14 14 12 13 16 10 11 12 17 18 10 18 12 21 5 15 6 1 9 3 4 5 6 6 5 6 9 35 28 23 19 17 16 16 15 12 12 10 9 9 11 15 22
48 47 48 50 49 45 38 33 32 35 35 19 10 10 10 14 13 15 4 8 12 2 14 7 12 9 7 7 6 6 5 6 3 1 7 7 5 20 42 28 22 19 17 16 14 11 10 7 8 9 10 12 18 23
45 45 45 46 46 46 43 32 23 25 22 16 10 9 19 19 22 11 7 8 7 17 17 18 4 9 5 7 10 7 10 3 2 6 7 7 9 37 30 25 22 20 16 13 13 12 11 8 6 4 6 9 12 15
40 42 42 41 42 43 42 36 20 12 11 12 17 16 9 10 4 6 6 6 2 7 11 12 6 10 9 10 1 10 5 6 7 3 10 5 35 39 29 25 23 21 20 18 16 14 11 9 5 5 7 9 12 14
31 32 42 43 42 41 36 34 24 12 12 13 13 7 6 5 2 3 2 0 0 4 7 2 5 6 6 8 5 6 7 4 10 9 6 10 41 36 31 28 25 25 24 22 20 16 12 8 4 1 5 10 13 17
29 29 38 39 42 40 32 23 19 19 13 12 14 11 9 3 1 5 5 3 4 3 4 5 4 8 5 6 7 9 10 11 7 5 5 25 37 30 29 28 26 25 23 20 18 15 11 9 8 6 5 9 15 20
27 26 34 37 37 30 33 14 15 16 12 10 10 18 10 8 5 2 1 2 4 4 2 5 8 8 1 6 6 8 9 6 9 8 9 21 23 28 30 29 27 25 23 21 17 14 13 11 9 8 8 12 18 22
24 26 30 33 36 23 26 18 12 11 13 10 6 11 6 10 11 7 5 4 2 4 3 4 7 5 8 8 8 7 17 14 13 9 15 24 27 27 26 26 26 24 21 18 17 16 15 14 11 11 11 14 18 21
24 24 26 30 30 16 8 11 10 10 7 9 17 17 8 6 7 8 7 6 6 5 7 7 7 6 7 17 16 15 19 21 19 21 24 27 28 27 27 27 25 21 20 20 19 19 18 16 15 14 15 18 20 22
21 20 20 23 22 7 5 7 7 9 9 13 15 15 7 6 10 12 12 11 12 6 4 5 10 14 18 18 18 24 26 23 26 25 29 32 31 29 29 26 23 24 25 23 23 23 21 19 17 17 19 21 22 22
21 13 16 17 7 1 6 7 7 8 15 7 13 11 5 7 7 9 11 18 15 12 10 32 37 27 27 24 23 18 15 15 20 21 19 32 32 31 31 31 31 30 28 27 25 23 23 19 19 21 22 24 24 23
15 15 12 9 4 4 6 6 11 15 8 12 14 7 4 4 6 6 8 16 16 19 22 21 29 28 31 32 27 21 18 19 22 24 25 25 27 36 39 36 34 31 30 27 26 23 21 21 23 23 24 25 24 22
13 8 6 7 6 3 4 15 4 8 5 12 11 2 4 4 5 5 9 15 18 22 30 35 33 29 24 25 29 30 29 28 29 29 30 30 30 29 31 34 33 32 32 28 25 24 23 25 25 25 24 24 22 21
10 7 6 5 6 7 13 5 6 7 8 4 5 3 4 7 4 3 7 12 20 18 17 19 26 32 31 32 35 34 32 31 31 33 35 36 35 32 30 29 32 31 29 30 29 27 27 25 26 25 25 24 22 21
5 7 6 3 7 8 6 3 4 4 5 4 3 4 3 6 1 3 7 12 19 15 16 21 26 28 33 30 27 26 34 37 37 37 34 35 32 34 37 36 35 32 35 33 29 27 26 27 25 25 25 23 22 22
6 8 6 10 4 9 10 9 10 12 6 6 9 2 4 4 1 11 7 10 15 10 12 12 17 25 32 31 32 28 28 30 34 41 37 41 40 39 34 34 33 31 33 28 27 27 26 25 24 25 24 24 23 22
8 11 10 11 11 12 7 6 8 4 9 12 7 8 4 5 10 10 11 16 16 12 12 12 14 18 21 26 30 30 32 35 35 36 33 36 37 36 35 36 33 25 28 24 23 22 23 23 24 24 23 23 23 24
11 18 9 20 12 12 8 5 10 13 8 13 20 9 12 14 9 6 11 11 11 12 11 13 23 33 36 35 35 36 39 38 37 40 37 37 37 37 36 33 31 30 28 25 23 23 23 23 23 22 20 20 23 24
7 12 19 7 8 9 16 12 9 13 14 23 8 7 8 13 11 9 14 21 29 41 51 53 55 54 51 50 51 48 42 43 43 44 47 45 38 35 32 31 30 29 29 29 28 27 26 25 24 22 21 21 21 22
9 23 7 8 9 10 11 16 9 13 18 22 14 15 22 37 44 45 56 59 55 43 26 14 21 25 29 31 30 38 46 43 43 45 43 42 31 24 24 24 25 27 29 32 33 32 31 28 25 21 21 21 21 21
12 19 6 9 6 6 7 12 15 16 16 17 29 33 36 33 40 31 15 6 10 5 11 20 26 30 35 37 40 40 37 37 39 39 40 38 30 21 18 19 21 24 26 28 31 31 29 27 24 22 21 20 21 21
14 12 7 6 4 5 6 5 4 6 7 7 8 10 11 11 12 6 6 10 5 9 18 22 23 24 27 28 27 27 26 26 23 24 31 32 28 26 25 26 31 33 31 29 27 26 25 24 23 23 23 22 22 22
5 7 5 3 2 3 5 1 3 5 7 6 6 6 7 9 14 8 8 10 4 9 9 11 15 20 26 29 25 13 10 15 16 15 17 19 18 20 24 29 29 26 23 23 23 22 22 22 22 23 22 22 22 23
Wind_Direction_850mb
37 39 46 55 74 75 89 107 117 123 132 136 145 146 153 130 90 115 113 153 147 93 55 93 118 82 122 127 150 162 106 350 47 71 109 179 118 204 105 169 171 160 151 182 129 141 255 5 332 171 81 69 54 31
45 43 40 52 73 79 89 98 119 135 145 149 159 170 162 132 60 53 98 118 123 109 104 89 90 99 108 119 135 151 129 144 152 103 99 102 92 123 154 197 189 170 178 172 165 179 78 56 87 75 81 81 29 360
48 51 48 44 46 54 79 95 114 123 143 162 164 175 211 195 15 51 119 120 112 97 70 81 66 86 116 143 141 106 174 145 146 120 143 147 121 129 145 231 109 143 130 112 130 84 118 92 70 70 50 45 4 349
45 48 49 50 49 50 48 71 94 118 126 143 171 176 201 225 219 196 135 121 126 105 92 50 84 68 103 142 152 163 154 141 127 118 86 106 121 175 191 158 123 209 345 129 87 119 122 88 46 31 17 3 350 343
40 44 47 48 50 50 54 57 53 99 135 131 141 152 165 150 158 150 135 103 108 120 132 129 75 77 90 127 130 122 142 136 95 67 59 98 123 105 0 68 96 6 146 167 174 144 130 119 8 1 0 351 343 340
37 39 41 44 47 48 52 58 66 64 65 85 100 121 142 132 125 141 87 69 90 113 99 75 65 44 95 98 112 117 110 83 79 75 85 95 84 100 102 174 158 138 120 112 144 155 210 241 219 317 337 341 341 342
33 34 37 39 41 43 47 52 59 72 88 111 122 120 114 103 147 191 132 133 127 87 94 102 38 25 60 84 84 74 65 61 68 88 48 61 52 45 90 179 151 160 147 135 133 129 126 179 276 326 341 349 357 356
28 29 30 31 35 38 41 43 47 55 70 83 96 105 105 96 93 93 109 126 123 97 89 97 17 38 26 38 69 41 64 55 42 86 62 42 33 34 123 167 152 160 159 165 151 127 160 212 350 4 3 3 9 8
19 21 22 26 27 30 32 35 38 42 38 61 92 84 75 60 51 64 84 80 71 85 102 69 103 188 12 59 52 54 46 64 36 77 32 38 324 218 180 168 176 174 174 168 177 163 137 104 58 33 22 19 19 16
17 17 16 15 15 20 26 29 29 30 41 35 33 47 54 13 44 54 47 47 39 37 47 70 345 4 13 26 34 36 33 123 60 293 350 71 258 164 159 172 174 175 173 168 156 147 124 100 79 64 41 26 18 13
17 17 17 14 11 9 9 19 30 42 65 46 37 45 24 28 32 43 54 44 358 37 24 36 31 11 30 64 156 34 89 36 75 272 120 322 286 201 175 168 170 173 168 160 147 136 119 101 93 82 65 37 27 24
15 16 16 15 13 10 8 7 16 33 45 56 83 66 37 27 43 69 4 2 41 82 359 16 352 18 32 37 90 6 110 35 198 316 68 288 248 157 171 171 168 168 167 153 138 129 116 108 78 53 36 35 26 25
11 11 10 10 10 13 13 12 13 16 18 29 33 50 11 355 42 57 354 342 32 351 1 358 357 5 15 39 64 67 71 204 309 46 231 230 155 162 170 172 169 167 158 148 141 138 137 127 108 78 38 25 20 19
6 11 10 6 8 7 9 12 16 33 33 39 29 26 58 354 38 182 188 202 328 313 340 358 335 24 9 35 92 81 252 71 43 5 240 246 186 171 174 175 173 164 161 159 159 159 160 155 129 54 17 1 352 356
3 6 10 12 12 13 10 14 23 46 57 62 42 57 60 150 157 157 157 230 150 360 11 52 30 2 353 68 28 95 41 256 204 232 234 208 178 182 181 177 172 173 171 168 165 164 165 157 152 293 321 332 335 336
4 9 7 4 6 10 13 22 47 56 60 57 62 87 123 132 272 187 175 142 114 110 67 62 98 54 358 121 58 217 126 221 252 230 228 172 178 181 180 177 176 177 175 173 172 173 182 199 209 222 273 306 317 319
6 10 6 6 3 4 11 47 42 54 61 61 68 93 109 79 96 172 130 41 93 26 103 93 62 209 6 36 309 196 205 229 292 287 192 184 190 183 179 181 182 183 182 183 190 203 209 219 231 251 284 314 315 314
353 355 1 4 4 8 26 42 70 72 73 99 129 145 146 134 142 156 163 147 67 74 97 178 126 88 178 181 265 239 229 248 261 240 204 192 187 188 188 187 186 187 195 207 216 221 226 234 243 258 284 298 303 307
336 342 351 358 3 9 32 45 55 97 103 128 142 148 150 165 187 179 176 182 171 140 141 138 88 197 227 214 227 248 255 254 249 235 212 199 196 197 195 194 198 204 216 222 228 229 233 242 246 263 286 296 302 303
321 324 337 351 356 18 75 62 73 96 141 160 167 174 177 192 188 203 204 199 185 204 172 194 215 213 211 238 256 275 283 267 235 214 209 203 200 203 205 210 212 220 224 229 234 235 240 247 256 272 288 296 300 299
314 311 321 335 329 53 102 121 84 94 130 138 161 168 185 192 212 206 208 201 204 223 236 227 229 237 239 250 268 266 257 242 227 224 229 208 209 213 215 219 224 228 229 232 236 240 248 259 261 271 283 290 296 296
294 299 304 303 232 135 96 93 116 130 136 136 155 193 233 223 209 206 211 204 235 233 217 233 244 247 247 251 254 244 237 230 224 224 226 226 221 223 224 227 230 234 235 236 241 248 255 256 260 267 277 285 289 290
278 280 254 230 184 158 139 155 144 138 115 175 156 126 248 207 202 220 253 236 256 255 243 248 251 247 246 245 237 236 237 237 238 239 240 243 240 233 225 229 233 237 237 238 247 254 257 257 257 264 274 279 280 282
251 241 234 223 190 147 145 124 129 126 133 106 120 231 242 178 204 232 255 256 243 246 251 259 253 251 248 244 243 244 244 246 245 240 236 236 238 239 240 239 238 239 239 240 248 252 255 257 257 265 271 273 272 275
242 240 204 241 155 117 88 62 5 72 184 188 123 273 224 170 99 244 234 266 251 256 254 252 250 249 249 254 254 245 237 242 245 249 245 244 243 237 240 240 242 242 241 246 248 253 253 252 260 267 271 271 273 281
227 208 161 196 173 174 182 148 194 195 154 165 219 145 152 106 105 243 231 239 243 248 244 258 258 257 257 256 260 259 258 254 248 247 242 243 244 246 247 246 246 244 246 245 244 252 254 256 264 269 271 271 274 284
237 216 185 173 160 150 97 104 134 129 172 193 177 153 157 201 239 247 237 235 244 260 263 270 279 282 285 273 265 260 257 249 248 253 252 247 246 243 241 243 245 243 239 242 247 256 255 261 268 269 265 269 279 289
223 180 188 175 174 178 146 165 173 198 201 172 142 180 192 205 235 217 222 224 241 261 269 283 296 295 291 284 277 266 253 250 251 245 242 241 237 237 238 239 235 231 234 241 248 255 257 263 271 270 263 265 275 288
188 174 155 137 160 199 217 195 207 198 185 177 181 216 235 226 232 232 263 274 273 279 285 288 288 286 283 276 268 265 265 252 243 243 244 244 242 243 243 238 230 228 236 244 250 254 257 262 269 265 259 265 274 285
188 174 167 176 183 216 200 200 203 198 203 213 243 269 270 271 282 287 289 287 286 284 278 282 304 310 304 295 287 270 258 255 248 243 246 249 259 255 242 232 231 240 248 252 253 252 255 260 264 257 257 266 275 282
166 184 199 203 240 217 214 215 232 245 247 250 251 260 270 292 298 296 283 257 170 215 302 314 316 312 307 301 290 279 261 253 246 239 237 240 240 239 233 237 245 252 257 255 250 247 250 259 259 257 263 271 278 285
174 190 199 209 224 205 204 212 247 252 253 247 257 259 288 279 273 262 223 199 248 314 329 333 336 338 337 331 315 285 258 235 224 225 221 221 223 232 245 253 256 255 255 249 244 245 249 252 252 257 264 271 278 287
168 184 208 241 213 208 188 199 283 298 262 266 264 267 248 258 257 248 228 222 277 332 349 11 19 23 23 25 30 46 122 168 174 179 190 196 212 238 254 262 261 254 245 241 242 244 247 246 251 258 265 272 279 286